| time (UTC) | temp C | wind direction | speed KPH | gust KPH | rain 1hr cm | rain 24hr cm | rain mn cm | humidity % | barometer mb |
| 20260506185027 | 15 | 319 | 6.4 | 16.1 | 0.00 | 0.00 | 0.00 | 82 | 1013.6 |
| 20260506184528 | 15 | 259 | 8.0 | 17.7 | 0.00 | 0.00 | 0.00 | 83 | 1013.4 |
| 20260506184026 | 15 | 285 | 6.4 | 17.7 | 0.00 | 0.00 | 0.00 | 83 | 1013.1 |
| 20260506183526 | 15 | 39 | 4.8 | 17.7 | 0.00 | 0.00 | 0.00 | 83 | 1012.8 |
| 20260506183027 | 15 | 352 | 4.8 | 16.1 | 0.00 | 0.00 | 0.00 | 83 | 1012.7 |
| 20260506182526 | 15 | 333 | 4.8 | 16.1 | 0.00 | 0.00 | 0.00 | 83 | 1012.8 |
| 20260506182028 | 14 | 334 | 4.8 | 16.1 | 0.00 | 0.00 | 0.00 | 83 | 1012.9 |
| 20260506181527 | 14 | 316 | 3.2 | 12.9 | 0.00 | 0.00 | 0.00 | 83 | 1013.5 |
| 20260506181027 | 14 | 33 | 3.2 | 9.7 | 0.00 | 0.00 | 0.00 | 83 | 1013.4 |
| 20260506180524 | 14 | 354 | 1.6 | 6.4 | 0.00 | 0.00 | 0.00 | 83 | 1013.5 |
| 20260506180022 | 15 | 328 | 1.6 | 6.4 | 0.00 | 0.00 | 0.00 | 83 | 1013.5 |
| 20260506175527 | 15 | 44 | 0.0 | 14.5 | 0.00 | 0.00 | 0.00 | 83 | 1013.4 |
| 20260506175522 | 15 | 85 | 0.0 | 6.4 | 0.00 | 0.00 | 0.00 | 83 | 1013.0 |
| 20260506174522 | 15 | 320 | 1.6 | 14.5 | 0.00 | 0.00 | 0.00 | 83 | 1013.2 |
| 20260506174023 | 15 | 54 | 3.2 | 14.5 | 0.00 | 0.00 | 0.00 | 83 | 1012.7 |
| 20260506173523 | 15 | 80 | 4.8 | 17.7 | 0.00 | 0.00 | 0.00 | 84 | 1011.7 |
| 20260506173021 | 14 | 303 | 4.8 | 17.7 | 0.00 | 0.00 | 0.00 | 84 | 1011.2 |
| 20260506172522 | 14 | 254 | 3.2 | 17.7 | 0.00 | 0.00 | 0.00 | 84 | 1011.7 |
| 20260506172027 | 14 | 52 | 3.2 | 11.3 | 0.00 | 0.00 | 0.00 | 84 | 1012.5 |
| 20260506172022 | 14 | 351 | 3.2 | 17.7 | 0.00 | 0.00 | 0.00 | 84 | 1012.1 |
| 20260506171025 | 14 | 13 | 3.2 | 11.3 | 0.00 | 0.00 | 0.00 | 85 | 1013.6 |
| 20260506171019 | 14 | 86 | 3.2 | 11.3 | 0.00 | 0.00 | 0.00 | 85 | 1013.1 |
| 20260506170020 | 13 | 238 | 1.6 | 11.3 | 0.00 | 0.00 | 0.00 | 85 | 1013.9 |
| 20260506165521 | 13 | 205 | 1.6 | 9.7 | 0.00 | 0.00 | 0.00 | 85 | 1013.9 |
| 20260506165022 | 13 | 322 | 1.6 | 9.7 | 0.00 | 0.00 | 0.00 | 85 | 1014.0 |
| 20260506164521 | 13 | 355 | 3.2 | 9.7 | 0.00 | 0.00 | 0.00 | 85 | 1014.7 |
| 20260506164019 | 13 | 80 | 3.2 | 12.9 | 0.00 | 0.00 | 0.00 | 85 | 1014.2 |
| 20260506163520 | 13 | 85 | 3.2 | 12.9 | 0.00 | 0.00 | 0.00 | 85 | 1013.5 |
| 20260506163140 | 13 | 93 | 1.6 | 9.7 | 0.00 | 0.00 | 0.00 | 84 | 1013.1 |
| 20260506163020 | 13 | 46 | 3.2 | 14.5 | 0.00 | 0.00 | 0.00 | 85 | 1013.1 |
| 20260506162518 | 13 | 49 | 3.2 | 14.5 | 0.00 | 0.00 | 0.00 | 85 | 1013.4 |
| 20260506162023 | 13 | 29 | 1.6 | 14.5 | 0.00 | 0.00 | 0.00 | 85 | 1013.4 |
| 20260506162019 | 13 | 278 | 3.2 | 14.5 | 0.00 | 0.00 | 0.00 | 85 | 1013.5 |
| 20260506160518 | 13 | 337 | 0.0 | 9.7 | 0.00 | 0.00 | 0.00 | 85 | 1014.1 |
| 20260506160024 | 13 | 50 | 1.6 | 16.1 | 0.00 | 0.00 | 0.00 | 85 | 1014.2 |
| 20260506160018 | 13 | 2 | 0.0 | 6.4 | 0.00 | 0.00 | 0.00 | 85 | 1014.3 |
| 20260506155018 | 13 | 12 | 3.2 | 16.1 | 0.00 | 0.00 | 0.00 | 85 | 1013.9 |
| 20260506154517 | 13 | 345 | 4.8 | 16.1 | 0.00 | 0.00 | 0.00 | 85 | 1013.9 |
| 20260506154018 | 13 | 18 | 4.8 | 20.9 | 0.00 | 0.00 | 0.00 | 85 | 1013.9 |
| 20260506153518 | 13 | 20 | 4.8 | 20.9 | 0.00 | 0.00 | 0.00 | 85 | 1014.9 |
| 20260506153018 | 13 | 329 | 8.0 | 20.9 | 0.00 | 0.00 | 0.00 | 85 | 1014.7 |
| 20260506152523 | 13 | 309 | 9.7 | 24.1 | 0.00 | 0.00 | 0.00 | 84 | 1015.0 |
| 20260506152518 | 13 | 338 | 9.7 | 24.1 | 0.00 | 0.00 | 0.00 | 84 | 1014.6 |
| 20260506152139 | 13 | 328 | 11.3 | 24.1 | 0.00 | 0.00 | 0.00 | 84 | 1014.8 |
| 20260506151017 | 13 | 326 | 9.7 | 24.1 | 0.00 | 0.00 | 0.00 | 84 | 1014.9 |
| 20260506150517 | 13 | 316 | 6.4 | 20.9 | 0.00 | 0.00 | 0.00 | 84 | 1015.0 |
| 20260506150019 | 13 | 318 | 6.4 | 27.4 | 0.00 | 0.00 | 0.00 | 84 | 1014.3 |
| 20260506145518 | 13 | 330 | 8.0 | 27.4 | 0.00 | 0.00 | 0.00 | 84 | 1014.0 |
| 20260506145023 | 13 | 349 | 8.0 | 27.4 | 0.00 | 0.00 | 0.00 | 83 | 1013.7 |
| 20260506145019 | 13 | 304 | 9.7 | 27.4 | 0.00 | 0.00 | 0.00 | 84 | 1013.8 |
| 20260506144019 | 13 | 299 | 6.4 | 20.9 | 0.00 | 0.00 | 0.00 | 83 | 1013.5 |
| 20260506143518 | 13 | 356 | 8.0 | 20.9 | 0.00 | 0.00 | 0.00 | 83 | 1013.4 |
| 20260506143017 | 13 | 333 | 6.4 | 17.7 | 0.00 | 0.00 | 0.00 | 82 | 1013.7 |
| 20260506142517 | 13 | 332 | 3.2 | 14.5 | 0.00 | 0.00 | 0.00 | 82 | 1013.5 |
| 20260506142018 | 13 | 64 | 3.2 | 12.9 | 0.00 | 0.00 | 0.00 | 83 | 1013.0 |
| 20260506141518 | 13 | 336 | 3.2 | 12.9 | 0.00 | 0.00 | 0.00 | 82 | 1013.2 |
| 20260506141019 | 14 | 56 | 1.6 | 11.3 | 0.00 | 0.00 | 0.00 | 82 | 1013.1 |
| 20260506140523 | 14 | 1 | 4.8 | 16.1 | 0.00 | 0.00 | 0.00 | 82 | 1013.0 |
| 20260506140518 | 14 | 307 | 3.2 | 16.1 | 0.00 | 0.00 | 0.00 | 82 | 1013.0 |
| 20260506135518 | 14 | 307 | 4.8 | 16.1 | 0.00 | 0.00 | 0.00 | 81 | 1012.7 |
| 20260506135019 | 14 | 308 | 3.2 | 16.1 | 0.00 | 0.00 | 0.00 | 81 | 1012.7 |
| 20260506134523 | 14 | 36 | 4.8 | 14.5 | 0.00 | 0.00 | 0.00 | 81 | 1012.6 |
| 20260506134518 | 14 | 0 | 1.6 | 14.5 | 0.00 | 0.00 | 0.00 | 81 | 1012.8 |
| 20260506133519 | 14 | 221 | 4.8 | 19.3 | 0.00 | 0.00 | 0.00 | 80 | 1012.6 |
| 20260506133018 | 14 | 337 | 3.2 | 19.3 | 0.00 | 0.00 | 0.00 | 80 | 1012.3 |
| 20260506132523 | 14 | 301 | 6.4 | 19.3 | 0.00 | 0.00 | 0.00 | 80 | 1012.1 |
| 20260506132518 | 14 | 37 | 4.8 | 19.3 | 0.00 | 0.00 | 0.00 | 80 | 1012.3 |
| 20260506131517 | 14 | 299 | 4.8 | 16.1 | 0.00 | 0.00 | 0.00 | 80 | 1012.2 |
| 20260506131018 | 14 | 335 | 4.8 | 16.1 | 0.00 | 0.00 | 0.00 | 80 | 1012.2 |
| 20260506130518 | 14 | 344 | 3.2 | 20.9 | 0.00 | 0.00 | 0.00 | 80 | 1012.2 |
| 20260506130018 | 14 | 316 | 4.8 | 20.9 | 0.00 | 0.00 | 0.00 | 80 | 1012.2 |
| 20260506125518 | 14 | 302 | 0.0 | 17.7 | 0.00 | 0.00 | 0.00 | 80 | 1012.1 |
| 20260506125024 | -17 | 0.0 | 0.0 | 0.00 | 0.00 | 0.00 | 1011.8 | ||
| 20260506125017 | 14 | 345 | 0.0 | 11.3 | 0.00 | 0.00 | 0.00 | 80 | 1012.0 |
| 20260506124015 | -17 | 0.0 | 0.0 | 0.00 | 0.00 | 0.00 | 1011.9 | ||
| 20260506123515 | -17 | 0.0 | 0.0 | 0.00 | 0.00 | 0.00 | 1011.7 | ||
| 20260506122921 | -17 | 0.0 | 0.0 | 0.00 | 0.00 | 0.00 | 1011.6 | ||
| 20260506122422 | -17 | 0.0 | 0.0 | 0.00 | 0.00 | 0.00 | 1011.6 | ||
| 20260506121917 | -17 | 0.0 | 0.0 | 0.00 | 0.00 | 0.00 | 1011.6 | ||
| 20260506121412 | -17 | 0.0 | 0.0 | 0.00 | 0.00 | 0.00 | 1011.5 | ||
| 20260506120818 | -17 | 0.0 | 0.0 | 0.00 | 0.00 | 0.00 | 1011.5 | ||
| 20260506120320 | -17 | 0.0 | 0.0 | 0.00 | 0.00 | 0.00 | 1011.5 | ||
| 20260506115815 | -17 | 0.0 | 0.0 | 0.00 | 0.00 | 0.00 | 1011.4 | ||
| 20260506115310 | -17 | 0.0 | 0.0 | 0.00 | 0.00 | 0.00 | 1011.2 | ||
| 20260506114717 | -17 | 0.0 | 0.0 | 0.00 | 0.00 | 0.00 | 1011.1 | ||
| 20260506114221 | -17 | 0.0 | 0.0 | 0.00 | 0.00 | 0.00 | 1010.8 | ||
| 20260506114215 | -17 | 0.0 | 0.0 | 0.00 | 0.00 | 0.00 | 1011.0 | ||
| 20260506113205 | -17 | 0.0 | 0.0 | 0.00 | 0.00 | 0.00 | 1010.6 | ||
| 20260506112618 | -17 | 0.0 | 0.0 | 0.00 | 0.00 | 0.00 | 1010.7 | ||
| 20260506112122 | -17 | 0.0 | 0.0 | 0.00 | 0.00 | 0.00 | 1010.5 | ||
| 20260506112118 | -17 | 0.0 | 0.0 | 0.00 | 0.00 | 0.00 | 1010.6 | ||
| 20260506111119 | -17 | 0.0 | 0.0 | 0.00 | 0.00 | 0.00 | 1010.5 | ||
| 20260506111114 | -17 | 0.0 | 0.0 | 0.00 | 0.00 | 0.00 | 1010.4 | ||
| 20260506110018 | -17 | 0.0 | 0.0 | 0.00 | 0.00 | 0.00 | 1010.4 | ||
| 20260506105514 | -17 | 0.0 | 0.0 | 0.00 | 0.00 | 0.00 | 1010.1 | ||
| 20260506105015 | -17 | 0.0 | 0.0 | 0.00 | 0.00 | 0.00 | 1010.1 | ||
| 20260506104510 | -17 | 0.0 | 0.0 | 0.00 | 0.00 | 0.00 | 1010.0 | ||
| 20260506104006 | -17 | 0.0 | 0.0 | 0.00 | 0.00 | 0.00 | 1009.9 | ||
| 20260506103414 | -17 | 356 | 0.0 | 0.0 | 0.00 | 0.00 | 0.00 | 1009.8 | |
| 20260506102842 | -17 | 356 | 0.0 | 4.8 | 0.00 | 0.00 | 0.00 | 1009.7 | |
| 20260506102346 | 16 | 349 | 0.0 | 8.0 | 0.00 | 0.00 | 0.00 | 80 | 1009.5 |
| 20260506102340 | 16 | 356 | 0.0 | 4.8 | 0.00 | 0.00 | 0.00 | 80 | 1009.7 |
| 20260506102006 | 16 | 33 | 1.6 | 9.7 | 0.00 | 0.00 | 0.00 | 79 | 1009.6 |
| 20260506102000 | 16 | 347 | 0.0 | 8.0 | 0.00 | 0.00 | 0.00 | 80 | 1009.6 |
| 20260506100842 | 16 | 0 | 0.0 | 9.7 | 0.00 | 0.00 | 0.00 | 80 | 1009.6 |
| 20260506095847 | 16 | 340 | 1.6 | 9.7 | 0.00 | 0.00 | 0.00 | 79 | 1009.5 |
| 20260506095841 | 16 | 82 | 1.6 | 9.7 | 0.00 | 0.00 | 0.00 | 80 | 1009.6 |
| 20260506094842 | 16 | 26 | 3.2 | 14.5 | 0.00 | 0.00 | 0.00 | 79 | 1009.3 |
| 20260506094340 | 16 | 4 | 4.8 | 14.5 | 0.00 | 0.00 | 0.00 | 79 | 1009.3 |
| 20260506093839 | 16 | 41 | 4.8 | 14.5 | 0.00 | 0.00 | 0.00 | 80 | 1009.4 |
| 20260506093340 | 16 | 17 | 3.2 | 14.5 | 0.00 | 0.00 | 0.00 | 80 | 1009.3 |
| 20260506092837 | 16 | 28 | 1.6 | 12.9 | 0.00 | 0.00 | 0.00 | 80 | 1009.3 |
| 20260506092338 | 16 | 326 | 3.2 | 12.9 | 0.00 | 0.00 | 0.00 | 80 | 1009.3 |
| 20260506091837 | 16 | 338 | 3.2 | 12.9 | 0.00 | 0.00 | 0.00 | 80 | 1009.2 |
| 20260506091338 | 17 | 317 | 4.8 | 12.9 | 0.00 | 0.00 | 0.00 | 80 | 1009.0 |
| 20260506090844 | 17 | 320 | 1.6 | 8.0 | 0.00 | 0.00 | 0.00 | 80 | 1008.8 |
| 20260506090835 | 17 | 24 | 3.2 | 11.3 | 0.00 | 0.00 | 0.00 | 80 | 1009.0 |
| 20260506090336 | 17 | 327 | 1.6 | 11.3 | 0.00 | 0.00 | 0.00 | 80 | 1008.9 |
| 20260506085340 | 17 | 342 | 0.0 | 6.4 | 0.00 | 0.00 | 0.00 | 81 | 1008.8 |
| 20260506085333 | 17 | 27 | 0.0 | 8.0 | 0.00 | 0.00 | 0.00 | 81 | 1008.7 |
| 20260506084833 | 17 | 323 | 0.0 | 6.4 | 0.00 | 0.00 | 0.00 | 81 | 1008.8 |
| 20260506083838 | 17 | 60 | 0.0 | 6.4 | 0.00 | 0.00 | 0.00 | 81 | 1008.7 |
| 20260506083834 | 17 | 40 | 0.0 | 6.4 | 0.00 | 0.00 | 0.00 | 81 | 1008.8 |
| 20260506082833 | 17 | 45 | 1.6 | 12.9 | 0.00 | 0.00 | 0.00 | 81 | 1008.5 |
| 20260506082338 | 17 | 58 | 1.6 | 12.9 | 0.00 | 0.00 | 0.00 | 80 | 1008.5 |
| 20260506082334 | 17 | 49 | 1.6 | 12.9 | 0.00 | 0.00 | 0.00 | 81 | 1008.6 |
| 20260506081335 | 17 | 89 | 1.6 | 12.9 | 0.00 | 0.00 | 0.00 | 80 | 1008.6 |
| 20260506080833 | 18 | 27 | 1.6 | 9.7 | 0.00 | 0.00 | 0.00 | 80 | 1008.6 |
| 20260506080332 | 18 | 83 | 1.6 | 9.7 | 0.00 | 0.00 | 0.00 | 80 | 1008.6 |
| 20260506073332 | 18 | 30 | 1.6 | 6.4 | 0.00 | 0.00 | 0.00 | 79 | 1008.7 |
| 20260506072832 | 18 | 35 | 1.6 | 9.7 | 0.00 | 0.00 | 0.00 | 79 | 1008.7 |
| 20260506072332 | 18 | 64 | 1.6 | 9.7 | 0.00 | 0.00 | 0.00 | 79 | 1008.7 |
| 20260506071829 | 18 | 354 | 1.6 | 11.3 | 0.00 | 0.00 | 0.00 | 79 | 1008.7 |
| 20260506071328 | 19 | 34 | 1.6 | 11.3 | 0.00 | 0.00 | 0.00 | 79 | 1008.8 |
| 20260506070829 | 19 | 40 | 1.6 | 11.3 | 0.00 | 0.00 | 0.00 | 79 | 1008.8 |
| 20260506070333 | 19 | 338 | 1.6 | 11.3 | 0.00 | 0.00 | 0.00 | 79 | 1008.7 |
| 20260506070328 | 19 | 30 | 1.6 | 11.3 | 0.00 | 0.00 | 0.00 | 79 | 1008.7 |
| 20260506062332 | 21 | 43 | 1.6 | 12.9 | 0.00 | 0.00 | 0.00 | 78 | 1008.6 |
| 20260506062327 | 20 | 62 | 1.6 | 12.9 | 0.00 | 0.00 | 0.00 | 78 | 1008.5 |
| 20260506061329 | 21 | 277 | 1.6 | 8.0 | 0.00 | 0.00 | 0.00 | 77 | 1008.4 |
| 20260506060827 | 21 | 357 | 1.6 | 8.0 | 0.00 | 0.00 | 0.00 | 77 | 1008.6 |
| 20260506060327 | 21 | 62 | 1.6 | 8.0 | 0.00 | 0.00 | 0.00 | 77 | 1008.4 |
| 20260506051325 | 23 | 71 | 1.6 | 11.3 | 0.00 | 0.00 | 0.00 | 76 | 1008.2 |
| 20260506050827 | 23 | 1 | 3.2 | 11.3 | 0.00 | 0.00 | 0.00 | 75 | 1008.0 |
| 20260506050823 | 23 | 46 | 3.2 | 11.3 | 0.00 | 0.00 | 0.00 | 75 | 1008.0 |
| 20260506044827 | 23 | 315 | 4.8 | 9.7 | 0.00 | 0.00 | 0.00 | 74 | 1007.9 |
| 20260506044823 | 23 | 347 | 4.8 | 11.3 | 0.00 | 0.00 | 0.00 | 74 | 1007.9 |
| 20260506043821 | 23 | 324 | 4.8 | 9.7 | 0.00 | 0.00 | 0.00 | 73 | 1007.9 |
| 20260506043327 | 23 | 330 | 6.4 | 11.3 | 0.00 | 0.00 | 0.00 | 73 | 1007.8 |
| 20260506043321 | 23 | 311 | 6.4 | 11.3 | 0.00 | 0.00 | 0.00 | 73 | 1007.8 |
| 20260506042321 | 23 | 332 | 3.2 | 11.3 | 0.00 | 0.00 | 0.00 | 73 | 1007.7 |
| 20260506041825 | 23 | 357 | 1.6 | 11.3 | 0.00 | 0.00 | 0.00 | 73 | 1007.6 |
| 20260506041819 | 23 | 317 | 1.6 | 11.3 | 0.00 | 0.00 | 0.00 | 73 | 1007.8 |
| 20260506040819 | 23 | 74 | 3.2 | 11.3 | 0.00 | 0.00 | 0.00 | 74 | 1007.5 |
| 20260506040320 | 24 | 8 | 4.8 | 11.3 | 0.00 | 0.00 | 0.00 | 74 | 1007.4 |
| 20260506035824 | 24 | 317 | 4.8 | 14.5 | 0.00 | 0.00 | 0.00 | 74 | 1007.5 |
| 20260506035820 | 24 | 309 | 4.8 | 11.3 | 0.00 | 0.00 | 0.00 | 74 | 1007.4 |
| 20260506034824 | 24 | 319 | 6.4 | 14.5 | 0.00 | 0.00 | 0.00 | 73 | 1007.2 |
| 20260506034819 | 24 | 321 | 4.8 | 14.5 | 0.00 | 0.00 | 0.00 | 74 | 1007.4 |
| 20260506034439 | 25 | 6 | 3.2 | 9.7 | 0.00 | 0.00 | 0.00 | 82 | 1007.4 |
| 20260506033819 | 25 | 345 | 4.8 | 14.5 | 0.00 | 0.00 | 0.00 | 75 | 1007.4 |
| 20260506032818 | 25 | 319 | 3.2 | 4.8 | 0.00 | 0.00 | 0.00 | 82 | 1007.3 |
| 20260506032317 | 25 | 282 | 1.6 | 4.8 | 0.00 | 0.00 | 0.00 | 81 | 1007.0 |
| 20260506031817 | 25 | 319 | 0.0 | 4.8 | 0.00 | 0.00 | 0.00 | 81 | 1006.9 |
| 20260506031317 | 25 | 289 | 0.0 | 3.2 | 0.00 | 0.00 | 0.00 | 82 | 1006.9 |
| 20260506030818 | 25 | 301 | 1.6 | 3.2 | 0.00 | 0.00 | 0.00 | 81 | 1006.7 |
| 20260506030318 | 25 | 299 | 1.6 | 3.2 | 0.00 | 0.00 | 0.00 | 81 | 1006.4 |
| 20260506025818 | 25 | 294 | 0.0 | 3.2 | 0.00 | 0.00 | 0.00 | 82 | 1006.3 |
| 20260506025322 | 25 | 213 | 0.0 | 0.0 | 0.00 | 0.00 | 0.00 | 81 | 1006.0 |
| 20260506025317 | 25 | 213 | 0.0 | 0.0 | 0.00 | 0.00 | 0.00 | 82 | 1006.2 |
| 20260506024318 | 25 | 213 | 0.0 | 0.0 | 0.00 | 0.00 | 0.00 | 81 | 1005.9 |
| 20260506023820 | 25 | 213 | 0.0 | 0.0 | 0.00 | 0.00 | 0.00 | 81 | 1005.4 |
| 20260506023816 | 25 | 213 | 0.0 | 0.0 | 0.00 | 0.00 | 0.00 | 81 | 1005.9 |
| 20260506023433 | 25 | 220 | 0.0 | 0.0 | 0.00 | 0.00 | 0.00 | 81 | 1005.3 |
| 20260506022316 | 25 | 220 | 0.0 | 0.0 | 0.00 | 0.00 | 0.00 | 81 | 1005.4 |
| 20260506021822 | 26 | 141 | 0.0 | 4.8 | 0.00 | 0.00 | 0.00 | 80 | 1005.1 |
| 20260506021815 | 25 | 157 | 0.0 | 3.2 | 0.00 | 0.00 | 0.00 | 80 | 1005.2 |
| 20260506021316 | 26 | 131 | 0.0 | 3.2 | 0.00 | 0.00 | 0.00 | 80 | 1005.0 |
| 20260506020320 | 26 | 248 | 1.6 | 9.7 | 0.00 | 0.00 | 0.00 | 79 | 1005.1 |
| 20260506020314 | 26 | 168 | 0.0 | 9.7 | 0.00 | 0.00 | 0.00 | 80 | 1005.3 |
| 20260506015314 | 26 | 117 | 1.6 | 11.3 | 0.00 | 0.00 | 0.00 | 79 | 1005.0 |
| 20260506014812 | 26 | 131 | 1.6 | 11.3 | 0.00 | 0.00 | 0.00 | 79 | 1004.8 |
| 20260506014312 | 26 | 113 | 1.6 | 11.3 | 0.00 | 0.00 | 0.00 | 79 | 1004.8 |
| 20260506013813 | 26 | 113 | 1.6 | 12.9 | 0.00 | 0.00 | 0.00 | 79 | 1004.8 |
| 20260506013312 | 26 | 288 | 1.6 | 12.9 | 0.00 | 0.00 | 0.00 | 79 | 1004.8 |
| 20260506012813 | 26 | 148 | 3.2 | 12.9 | 0.00 | 0.00 | 0.00 | 78 | 1004.7 |
| 20260506012312 | 26 | 131 | 3.2 | 12.9 | 0.00 | 0.00 | 0.00 | 78 | 1004.4 |
| 20260506011812 | 26 | 121 | 3.2 | 9.7 | 0.00 | 0.00 | 0.00 | 78 | 1004.4 |
| 20260506011316 | 26 | 123 | 1.6 | 8.0 | 0.00 | 0.00 | 0.00 | 77 | 1004.5 |
| 20260506011310 | 26 | 131 | 3.2 | 9.7 | 0.00 | 0.00 | 0.00 | 77 | 1004.6 |
| 20260506010308 | 26 | 98 | 1.6 | 8.0 | 0.00 | 0.00 | 0.00 | 77 | 1004.5 |
| 20260506005810 | 26 | 131 | 1.6 | 9.7 | 0.00 | 0.00 | 0.00 | 77 | 1004.6 |
| 20260506005310 | 26 | 114 | 1.6 | 9.7 | 0.00 | 0.00 | 0.00 | 77 | 1004.6 |
| 20260506004809 | 27 | 132 | 1.6 | 6.4 | 0.00 | 0.00 | 0.00 | 76 | 1004.4 |
| 20260506004309 | 27 | 115 | 0.0 | 12.9 | 0.00 | 0.00 | 0.00 | 76 | 1004.5 |
| 20260506003814 | 27 | 129 | 3.2 | 12.9 | 0.00 | 0.00 | 0.00 | 75 | 1004.3 |
| 20260506003809 | 27 | 105 | 0.0 | 12.9 | 0.00 | 0.00 | 0.00 | 76 | 1004.5 |
| 20260506002809 | 27 | 148 | 4.8 | 12.9 | 0.00 | 0.00 | 0.00 | 75 | 1004.3 |
| 20260506002313 | 27 | 82 | 1.6 | 8.0 | 0.00 | 0.00 | 0.00 | 75 | 1004.1 |
| 20260506002309 | 27 | 121 | 3.2 | 9.7 | 0.00 | 0.00 | 0.00 | 75 | 1004.2 |
| 20260506001309 | 27 | 200 | 1.6 | 16.1 | 0.00 | 0.00 | 0.00 | 75 | 1004.2 |
| 20260506000806 | 27 | 110 | 3.2 | 16.1 | 0.00 | 0.00 | 0.00 | 75 | 1004.4 |
| 20260506000312 | 27 | 137 | 4.8 | 17.7 | 0.00 | 0.00 | 0.00 | 74 | 1004.2 |
| 20260506000306 | 27 | 207 | 3.2 | 16.1 | 0.00 | 0.00 | 0.00 | 74 | 1004.3 |
| 20260505235802 | 27 | 252 | 3.2 | 17.7 | 0.00 | 0.00 | 0.00 | 74 | 1004.2 |
| 20260505234802 | 27 | 214 | 6.4 | 17.7 | 0.00 | 0.00 | 0.00 | 74 | 1004.4 |
| 20260505234307 | 28 | 148 | 6.4 | 17.7 | 0.00 | 0.00 | 0.00 | 73 | 1004.3 |
| 20260505234302 | 27 | 198 | 6.4 | 17.7 | 0.00 | 0.00 | 0.00 | 73 | 1004.2 |
| 20260505233306 | 28 | 218 | 6.4 | 16.1 | 0.00 | 0.00 | 0.00 | 72 | 1004.2 |
| 20260505233300 | 28 | 91 | 6.4 | 16.1 | 0.00 | 0.00 | 0.00 | 73 | 1004.3 |
| 20260505232301 | 28 | 281 | 6.4 | 16.1 | 0.00 | 0.00 | 0.00 | 72 | 1004.1 |
| 20260505231802 | 28 | 169 | 6.4 | 16.1 | 0.00 | 0.00 | 0.00 | 72 | 1004.2 |
| 20260505231301 | 28 | 201 | 4.8 | 16.1 | 0.00 | 0.00 | 0.00 | 71 | 1004.2 |
| 20260505230801 | 28 | 250 | 4.8 | 14.5 | 0.00 | 0.00 | 0.00 | 71 | 1004.0 |
| 20260505230302 | 28 | 215 | 4.8 | 14.5 | 0.00 | 0.00 | 0.00 | 71 | 1004.0 |
| 20260505225802 | 28 | 264 | 4.8 | 17.7 | 0.00 | 0.00 | 0.00 | 71 | 1004.0 |
| 20260505225305 | 28 | 134 | 6.4 | 17.7 | 0.00 | 0.00 | 0.00 | 71 | 1004.0 |
| 20260505224802 | 29 | 216 | 8.0 | 17.7 | 0.00 | 0.00 | 0.00 | 70 | 1003.9 |
| 20260505224301 | 29 | 264 | 6.4 | 17.7 | 0.00 | 0.00 | 0.00 | 70 | 1004.0 |
| 20260505223801 | 29 | 191 | 6.4 | 16.1 | 0.00 | 0.00 | 0.00 | 70 | 1004.1 |
| 20260505223301 | 29 | 251 | 8.0 | 20.9 | 0.00 | 0.00 | 0.00 | 70 | 1004.1 |
| 20260505222802 | 28 | 191 | 8.0 | 20.9 | 0.00 | 0.00 | 0.00 | 70 | 1003.8 |
| 20260505222301 | 29 | 109 | 8.0 | 24.1 | 0.00 | 0.00 | 0.00 | 69 | 1003.7 |
| 20260505221758 | 29 | 191 | 8.0 | 24.1 | 0.00 | 0.00 | 0.00 | 69 | 1003.8 |
| 20260505221305 | 29 | 207 | 6.4 | 24.1 | 0.00 | 0.00 | 0.00 | 68 | 1003.9 |
| 20260505221300 | 29 | 224 | 8.0 | 24.1 | 0.00 | 0.00 | 0.00 | 70 | 1003.8 |
| 20260505220258 | 30 | 231 | 6.4 | 17.7 | 0.00 | 0.00 | 0.00 | 68 | 1003.6 |
| 20260505215803 | 30 | 140 | 8.0 | 20.9 | 0.00 | 0.00 | 0.00 | 68 | 1003.9 |
| 20260505215758 | 30 | 207 | 8.0 | 20.9 | 0.00 | 0.00 | 0.00 | 68 | 1003.7 |
| 20260505215257 | 30 | 193 | 8.0 | 20.9 | 0.00 | 0.00 | 0.00 | 68 | 1003.8 |
| 20260505214254 | 30 | 162 | 6.4 | 20.9 | 0.00 | 0.00 | 0.00 | 67 | 1003.9 |
| 20260505213910 | 30 | 92 | 6.4 | 19.3 | 0.00 | 0.00 | 0.00 | 67 | 1004.1 |
| 20260505213758 | 30 | 160 | 6.4 | 19.3 | 0.00 | 0.00 | 0.00 | 68 | 1004.0 |
| 20260505213753 | 30 | 116 | 4.8 | 17.7 | 0.00 | 0.00 | 0.00 | 68 | 1004.0 |
| 20260505212248 | 30 | 206 | 8.0 | 22.5 | 0.00 | 0.00 | 0.00 | 69 | 1004.2 |
| 20260505211749 | 30 | 182 | 8.0 | 22.5 | 0.00 | 0.00 | 0.00 | 68 | 1004.2 |
| 20260505211253 | 29 | 118 | 8.0 | 19.3 | 0.00 | 0.00 | 0.00 | 67 | 1004.1 |
| 20260505211249 | 30 | 234 | 8.0 | 20.9 | 0.00 | 0.00 | 0.00 | 68 | 1004.0 |
| 20260505210908 | 29 | 187 | 9.7 | 19.3 | 0.00 | 0.00 | 0.00 | 69 | 1004.2 |
| 20260505205754 | 29 | 169 | 8.0 | 24.1 | 0.00 | 0.00 | 0.00 | 68 | 1004.4 |
| 20260505205749 | 29 | 242 | 9.7 | 19.3 | 0.00 | 0.00 | 0.00 | 68 | 1004.3 |
| 20260505204748 | 30 | 172 | 8.0 | 24.1 | 0.00 | 0.00 | 0.00 | 67 | 1004.4 |
| 20260505204248 | 29 | 139 | 9.7 | 25.7 | 0.00 | 0.00 | 0.00 | 69 | 1004.4 |
| 20260505203748 | 29 | 200 | 8.0 | 25.7 | 0.00 | 0.00 | 0.00 | 67 | 1004.5 |
| 20260505203248 | 29 | 187 | 8.0 | 25.7 | 0.00 | 0.00 | 0.00 | 69 | 1004.5 |
| 20260505202747 | 29 | 67 | 8.0 | 25.7 | 0.00 | 0.00 | 0.00 | 69 | 1004.7 |
| 20260505202246 | 29 | 236 | 8.0 | 17.7 | 0.00 | 0.00 | 0.00 | 69 | 1004.7 |
| 20260505201747 | 29 | 130 | 8.0 | 22.5 | 0.00 | 0.00 | 0.00 | 70 | 1004.8 |
| 20260505201245 | 29 | 158 | 8.0 | 22.5 | 0.00 | 0.00 | 0.00 | 69 | 1004.8 |
| 20260505200744 | 28 | 224 | 8.0 | 22.5 | 0.00 | 0.00 | 0.00 | 70 | 1004.8 |
| 20260505200246 | 28 | 215 | 9.7 | 22.5 | 0.00 | 0.00 | 0.00 | 70 | 1004.8 |
| 20260505195744 | 28 | 221 | 9.7 | 22.5 | 0.00 | 0.00 | 0.00 | 71 | 1004.8 |
| 20260505195245 | 28 | 148 | 9.7 | 20.9 | 0.00 | 0.00 | 0.00 | 70 | 1004.8 |
| 20260505194744 | 28 | 122 | 9.7 | 24.1 | 0.00 | 0.00 | 0.00 | 70 | 1004.8 |
| 20260505194245 | 28 | 249 | 8.0 | 24.1 | 0.00 | 0.00 | 0.00 | 70 | 1004.9 |
| 20260505193743 | 28 | 156 | 9.7 | 22.5 | 0.00 | 0.00 | 0.00 | 72 | 1005.0 |
| 20260505193244 | 28 | 205 | 9.7 | 22.5 | 0.00 | 0.00 | 0.00 | 71 | 1004.9 |
| 20260505192742 | 28 | 170 | 8.0 | 22.5 | 0.00 | 0.00 | 0.00 | 71 | 1004.9 |
| 20260505192242 | 28 | 211 | 8.0 | 19.3 | 0.00 | 0.00 | 0.00 | 70 | 1005.1 |
| 20260505191748 | 28 | 145 | 11.3 | 24.1 | 0.00 | 0.00 | 0.00 | 71 | 1005.2 |
| 20260505191743 | 28 | 217 | 9.7 | 22.5 | 0.00 | 0.00 | 0.00 | 72 | 1005.1 |
| 20260505190740 | 28 | 235 | 8.0 | 24.1 | 0.00 | 0.00 | 0.00 | 71 | 1005.2 |
| 20260505190242 | 28 | 223 | 9.7 | 24.1 | 0.00 | 0.00 | 0.00 | 72 | 1005.2 |
| 20260505185741 | 27 | 207 | 9.7 | 24.1 | 0.00 | 0.00 | 0.00 | 71 | 1005.2 |